[[{"header":{"parameterUnit":"m.s-1","parameterCategory":1,"la1":30.2991,"la2":30.254,"lo1":-89.0895,"lo2":-89.0444,"dy":0.0017,"dx":0.0017,"nx":28,"ny":28,"refTime":"2023-11-20T09:00:00:Z","depth":0,"parameterNumber":2,"parameterNumberName":"U-component_of_WINDS"},"data":[0,0,0,0,0,0,0,0,0,0,0,0,0,0,0,0,0,0,0,0,0,0,0,0,0,0,0,0,0,0,0,0,0,0,0,0,0,0,0,0,0,0,0,0,0,0,0,0,0,0,0,0,0,0,0,0,0,0,2.6417,2.6419,0,2.6557,2.6559,2.656,2.656,2.6558,2.6556,2.6555,2.6705,2.671,2.6716,0,0,0,0,0,0,0,0,0,0,0,0,0,2.6158,2.6163,2.6417,2.6419,2.6421,2.6557,2.6559,2.6561,2.656,2.6558,2.6556,2.6554,2.6703,2.6709,2.6716,0,0,0,0,0,0,0,0,0,0,0,0,0,2.6282,2.6164,2.6417,2.6437,2.644,2.6557,2.6559,2.6561,2.6561,2.6558,2.6555,2.6553,2.67,2.6709,2.6717,2.6825,0,0,2.6743,2.6747,0,0,0,0,0,0,0,0,2.6275,2.6291,2.6432,2.6436,2.6439,2.6538,2.6522,2.665,2.6562,2.6515,2.6555,2.6551,2.6652,2.6664,2.6697,2.6832,2.6839,2.6744,2.6749,2.6753,2.6755,0,0,0,0,0,0,0,2.6266,2.6285,2.6473,2.6434,2.6439,2.6442,2.6456,2.6547,2.6598,2.6519,2.6519,2.6536,2.6653,2.6689,2.67,2.6841,2.6744,2.6751,2.6757,2.676,2.7077,2.708,0,0,0,0,0,0,2.6252,2.6278,2.6468,2.6477,2.6348,2.6448,2.6465,2.6509,2.6597,2.6607,2.6538,2.6535,2.6675,2.669,2.6706,2.6841,2.6753,2.6761,2.6766,2.7073,2.7077,2.7081,0,0,0,0,0,0,2.6247,2.6269,2.6463,2.6378,2.6402,2.6456,2.6506,2.6514,2.6549,2.6611,2.662,2.6564,2.6674,2.6694,2.6796,2.6846,2.6765,2.6773,2.707,2.7075,2.7079,2.711,0,0,0,0,0,0,2.6239,2.6267,2.6307,2.6378,2.6407,2.6548,2.6509,2.6518,2.6563,2.656,2.6638,2.6648,2.6673,2.6783,2.6805,2.6856,2.6779,2.7065,2.7072,2.7078,2.7105,2.7115,2.7124,0,0,0,0,0,2.623,2.631,2.6309,2.6332,2.6457,2.6551,2.6568,2.6593,2.6567,2.6609,2.6649,2.6645,2.6836,2.6794,2.6818,2.6873,2.7062,2.707,2.7077,2.71,2.7113,2.7124,0,0,0,0,0,0,2.6245,2.632,2.6319,2.6424,2.6481,2.6551,2.6604,2.6605,2.6673,2.6668,2.6699,2.6716,2.6819,2.6856,2.6807,2.6984,2.6947,2.6959,2.6956,2.6969,2.6978,2.6968,2.6786,0,0,0,0,0,2.626,2.6328,2.6391,2.6478,2.6506,2.655,2.6592,2.6607,2.6668,2.6693,2.674,2.6802,2.6876,2.6924,2.6995,2.711,2.7129,2.716,2.7169,2.7177,2.7188,2.7255,2.727,2.7105,2.7105,2.7105,0,0,2.6293,2.6342,2.6383,2.6482,2.6528,2.66,2.6571,2.6648,2.6703,2.6705,2.6805,2.6842,2.6913,2.7022,2.7073,2.7056,2.7238,2.7186,2.7192,2.7199,2.7264,2.728,2.7293,2.711,2.7109,2.7108,0,0,2.639,2.6432,2.6511,2.6558,2.6627,2.6656,2.6675,2.6745,2.677,2.687,2.6874,2.6941,2.7067,2.7119,2.7161,2.728,2.7281,2.7303,2.7355,2.7419,2.7432,2.7444,2.749,2.7505,2.7313,2.7313,2.7313,0,2.6422,2.6529,2.6552,2.663,2.6675,2.6679,2.6761,2.6806,2.6896,2.6928,2.6907,2.7068,2.7115,2.7239,2.7268,2.7301,2.7327,2.7295,2.7428,2.744,2.7451,2.7495,2.7512,2.7316,2.7315,2.7315,2.7315,0,2.6567,2.6642,2.6697,2.6783,2.6834,2.6914,2.6952,2.7001,2.7012,2.7045,2.7149,2.7206,2.7291,2.7321,2.7333,2.7447,2.7435,2.7421,2.7384,2.7469,2.7511,2.7528,2.7319,2.7318,2.7318,2.7317,0,0,2.6677,2.6775,2.6796,2.6836,2.6914,2.6973,2.7054,2.7135,2.7179,2.7241,2.7313,2.7421,2.7409,2.7457,2.7475,2.7531,2.7626,2.7511,2.7513,2.7532,2.776,2.7771,2.779,2.7626,2.7629,2.7632,2.7755,0,2.6784,2.6926,2.6951,2.7077,2.7148,2.7154,2.7225,2.7283,2.7316,2.7383,2.742,2.7497,2.7474,2.7504,2.756,2.7602,2.7672,2.7594,2.7696,2.77,2.768,2.7812,2.7824,2.7937,2.7771,2.7774,2.7776,0,2.6928,2.6993,2.7126,2.7197,2.7227,2.7291,2.7369,2.7432,2.7499,2.7519,2.7574,2.7586,2.7674,2.7633,2.7757,2.7703,2.7746,2.7774,2.7779,2.7792,2.7744,2.783,2.7973,2.7991,2.7801,2.7799,2.7797,0,2.6998,2.7119,2.7215,2.7249,2.7333,2.7379,2.7416,2.748,2.7528,2.7597,2.7629,2.7708,2.7752,2.7814,2.7849,2.7814,2.7972,2.7932,2.7994,2.7993,2.8028,2.8026,2.8182,2.8052,2.8052,2.8052,2.8051,0,2.7116,2.7198,2.7248,2.7307,2.74,2.7429,2.7521,2.7558,2.7615,2.7684,2.7694,2.776,2.78,2.7872,2.7899,2.8,2.8019,2.804,2.8047,2.8041,2.8038,2.8071,2.8065,2.8056,2.8055,2.8054,2.8054,0,2.7211,2.7247,2.7353,2.7424,2.7444,2.751,2.7572,2.7632,2.7665,2.7752,2.7775,2.7828,2.7913,2.7953,2.8059,2.8077,2.8193,2.8193,2.817,2.8173,2.8234,2.8228,2.8419,2.8447,2.8295,2.8297,2.8298,0,2.7285,2.7348,2.7426,2.7472,2.7511,2.7585,2.7634,2.7666,2.7718,2.7799,2.785,2.7935,2.8005,2.8142,2.8192,2.8274,2.8278,2.8339,2.829,2.8283,2.8282,2.8279,2.8287,2.8348,2.835,2.8351,2.8352,0,2.7414,2.7429,2.7499,2.7576,2.7634,2.7696,2.7758,2.7796,2.7838,2.7896,2.7982,2.8037,2.8145,2.8231,2.8317,2.8358,2.8364,2.8367,2.8386,2.8381,2.8366,2.8378,2.8197,2.8363,2.8361,2.8361,2.836,2.836,2.7503,2.756,2.7625,2.7703,2.7752,2.781,2.787,2.7911,2.7983,2.8072,2.8087,2.8181,2.8249,2.8364,2.8409,2.8485,2.8471,2.8498,2.8505,2.8512,2.8517,2.8352,2.85,2.85,2.85,2.85,2.8499,0,2.7634,2.7676,2.7748,2.7834,2.7896,2.7893,2.7962,2.8015,2.8096,2.8158,2.8227,2.8329,2.8413,2.8469,2.8555,2.8605,2.861,2.8627,2.8625,2.8635,2.8523,2.8499,2.8621,2.8621,2.8621,2.8621,2.8621,2.8621,2.771,2.7808,2.7832,2.7956,2.7998,2.8088,2.8128,2.8183,2.8233,2.8345,2.8414,2.845,2.8511,2.8602,2.868,2.8695,2.8728,2.8745,2.876,2.8655,2.8642,2.863,2.8608,2.8752,2.8752,2.8867,2.8868,2.8868]},{"header":{"parameterUnit":"m.s-1","parameterCategory":1,"la1":30.2991,"la2":30.254,"lo1":-89.0895,"lo2":-89.0444,"dy":0.0017,"dx":0.0017,"nx":28,"ny":28,"refTime":"2023-11-20T09:00:00:Z","depth":0,"parameterNumber":3,"parameterNumberName":"V-component_of_WINDS"},"data":[0,0,0,0,0,0,0,0,0,0,0,0,0,0,0,0,0,0,0,0,0,0,0,0,0,0,0,0,0,0,0,0,0,0,0,0,0,0,0,0,0,0,0,0,0,0,0,0,0,0,0,0,0,0,0,0,0,0,-1.133,-1.1326,0,-1.0918,-1.0913,-1.0908,-1.0792,-1.0794,-1.0797,-1.0799,-1.0358,-1.0345,-1.0331,0,0,0,0,0,0,0,0,0,0,0,0,0,-1.2005,-1.1993,-1.1331,-1.1326,-1.1321,-1.0918,-1.0913,-1.0907,-1.0792,-1.0795,-1.0797,-1.08,-1.0363,-1.0346,-1.033,0,0,0,0,0,0,0,0,0,0,0,0,0,-1.1663,-1.1989,-1.1332,-1.1215,-1.1201,-1.0919,-1.0912,-1.0905,-1.0791,-1.0795,-1.0798,-1.0802,-1.0368,-1.0348,-1.0327,-1.0127,0,0,-1.0264,-1.0254,0,0,0,0,0,0,0,0,-1.1683,-1.1639,-1.1237,-1.1223,-1.1206,-1.091,-1.0988,-1.0644,-1.079,-1.0946,-1.0799,-1.0803,-1.0538,-1.0503,-1.0417,-1.0107,-1.0088,-1.0262,-1.0249,-1.024,-1.0234,0,0,0,0,0,0,0,-1.1707,-1.1656,-1.1167,-1.1232,-1.1212,-1.1178,-1.1134,-1.0923,-1.0726,-1.0933,-1.0923,-1.0877,-1.053,-1.0438,-1.0406,-1.0081,-1.0262,-1.0244,-1.0231,-1.0223,-0.9585,-0.9581,0,0,0,0,0,0,-1.1753,-1.1676,-1.118,-1.1154,-1.1459,-1.1163,-1.1113,-1.1001,-1.0729,-1.0691,-1.0874,-1.0873,-1.0472,-1.0431,-1.039,-1.0138,-1.024,-1.0221,-1.0209,-0.9589,-0.9584,-0.9579,0,0,0,0,0,0,-1.1768,-1.171,-1.1196,-1.1413,-1.1345,-1.1148,-1.1023,-1.0991,-1.0899,-1.0685,-1.0648,-1.0818,-1.0473,-1.042,-1.0195,-1.0121,-1.0211,-1.0192,-0.9595,-0.9588,-0.9582,-0.9632,0,0,0,0,0,0,-1.1788,-1.1716,-1.1641,-1.1412,-1.1334,-1.1013,-1.1018,-1.0981,-1.0866,-1.086,-1.0622,-1.0585,-1.0472,-1.0227,-1.0174,-1.0094,-1.0176,-0.96,-0.9592,-0.9584,-0.9636,-0.9628,-0.9621,0,0,0,0,0,-1.1812,-1.1668,-1.1638,-1.1579,-1.1238,-1.1009,-1.0963,-1.0841,-1.0861,-1.0781,-1.0644,-1.0593,-1.0139,-1.0205,-1.0144,-1.0057,-0.9604,-0.9594,-0.9584,-0.9639,-0.963,-0.9622,0,0,0,0,0,0,-1.1886,-1.1636,-1.16,-1.1378,-1.1217,-1.099,-1.0886,-1.0834,-1.0659,-1.066,-1.051,-1.0457,-1.0243,-1.0127,-1.0205,-0.9849,-0.987,-0.9847,-0.9932,-0.9921,-0.9914,-0.9945,-1.0158,0,0,0,0,0,-1.1879,-1.1719,-1.1506,-1.1331,-1.1253,-1.1084,-1.098,-1.09,-1.0724,-1.0653,-1.0499,-1.0325,-1.0143,-1.0026,-0.9846,-0.962,-0.9565,-0.953,-0.9522,-0.9517,-0.9499,-0.9369,-0.9351,-0.9547,-0.9547,-0.9547,0,0,-1.1857,-1.17,-1.1608,-1.1342,-1.1207,-1.1041,-1.1027,-1.0851,-1.0724,-1.0624,-1.0404,-1.0285,-1.0081,-0.9855,-0.9747,-0.9752,-0.9433,-0.9505,-0.9503,-0.9486,-0.9357,-0.9339,-0.9323,-0.954,-0.9541,-0.9542,0,0,-1.1734,-1.1601,-1.1441,-1.1308,-1.1107,-1.0996,-1.0959,-1.074,-1.0659,-1.0437,-1.0359,-1.0204,-0.9894,-0.9752,-0.9639,-0.9467,-0.9412,-0.9412,-0.9371,-0.9247,-0.9232,-0.9218,-0.9154,-0.9134,-0.9395,-0.9395,-0.9395,0,-1.1731,-1.1483,-1.1363,-1.1193,-1.1077,-1.0986,-1.082,-1.0695,-1.0443,-1.0363,-1.0374,-0.9984,-0.984,-0.958,-0.9539,-0.9451,-0.9399,-0.9437,-0.9245,-0.9229,-0.9214,-0.9152,-0.9128,-0.9396,-0.9396,-0.9396,-0.9395,0,-1.1489,-1.1318,-1.1212,-1.0979,-1.0851,-1.0683,-1.0534,-1.0418,-1.0351,-1.0238,-1.0012,-0.9838,-0.9622,-0.9554,-0.9483,-0.9283,-0.9292,-0.9276,-0.9293,-0.9199,-0.9138,-0.9113,-0.9398,-0.9397,-0.9397,-0.9396,0,0,-1.1397,-1.1104,-1.1067,-1.096,-1.0733,-1.0596,-1.0423,-1.0219,-1.0121,-0.9951,-0.98,-0.9542,-0.9527,-0.9399,-0.9311,-0.9203,-0.9076,-0.9199,-0.9192,-0.9181,-0.8843,-0.8856,-0.883,-0.9041,-0.9036,-0.9032,-0.8859,0,-1.1245,-1.094,-1.0828,-1.0575,-1.0414,-1.0326,-1.0175,-1.0017,-0.9908,-0.9751,-0.9628,-0.9448,-0.9441,-0.9364,-0.9253,-0.9116,-0.9006,-0.9127,-0.8894,-0.8887,-0.8946,-0.8798,-0.881,-0.8656,-0.8835,-0.8831,-0.8828,0,-1.1024,-1.0859,-1.0593,-1.0388,-1.0315,-1.0183,-0.9986,-0.984,-0.9658,-0.9585,-0.9446,-0.9367,-0.9178,-0.9211,-0.8947,-0.9032,-0.893,-0.8848,-0.8839,-0.881,-0.885,-0.8764,-0.8604,-0.8581,-0.8789,-0.8792,-0.8795,0,-1.0984,-1.0693,-1.0496,-1.0408,-1.0163,-1.0072,-0.9965,-0.9787,-0.9672,-0.9499,-0.9421,-0.9227,-0.9119,-0.8968,-0.8837,-0.8873,-0.8585,-0.8606,-0.8516,-0.8519,-0.8456,-0.8461,-0.8277,-0.8395,-0.8395,-0.8396,-0.8396,0,-1.0823,-1.0662,-1.0475,-1.0354,-1.017,-1.0042,-0.9863,-0.9749,-0.9592,-0.9444,-0.9355,-0.9216,-0.9053,-0.8892,-0.8787,-0.8584,-0.8536,-0.8469,-0.8443,-0.8476,-0.8484,-0.8405,-0.8411,-0.839,-0.8391,-0.8392,-0.8393,0,-1.0745,-1.0613,-1.0393,-1.0182,-1.0125,-0.9999,-0.9816,-0.9692,-0.9582,-0.9395,-0.9343,-0.9166,-0.8972,-0.8828,-0.8575,-0.8505,-0.8288,-0.8261,-0.8351,-0.8337,-0.8254,-0.8264,-0.801,-0.7969,-0.8118,-0.8117,-0.8116,0,-1.065,-1.0526,-1.0304,-1.0202,-1.0097,-0.9932,-0.9816,-0.9684,-0.9565,-0.9351,-0.9252,-0.9054,-0.8888,-0.8582,-0.8427,-0.8233,-0.82,-0.8125,-0.8169,-0.8207,-0.8196,-0.8205,-0.8191,-0.8117,-0.8116,-0.8116,-0.8115,0,-1.0496,-1.0438,-1.0277,-1.0093,-0.9959,-0.9806,-0.9651,-0.957,-0.9411,-0.9281,-0.9086,-0.8958,-0.8704,-0.8506,-0.8298,-0.8181,-0.8119,-0.8103,-0.8071,-0.8102,-0.8159,-0.8126,-0.8332,-0.8108,-0.8109,-0.811,-0.811,-0.811,-1.0404,-1.029,-1.0118,-0.9941,-0.9812,-0.9671,-0.9545,-0.9421,-0.9258,-0.9044,-0.8975,-0.8773,-0.8593,-0.8308,-0.819,-0.8026,-0.8026,-0.7981,-0.7968,-0.7959,-0.7961,-0.8189,-0.7987,-0.7987,-0.7987,-0.7987,-0.7987,0,-1.0244,-1.013,-0.997,-0.9759,-0.962,-0.9582,-0.9409,-0.9293,-0.9119,-0.8959,-0.88,-0.8575,-0.8384,-0.8217,-0.8018,-0.7919,-0.7885,-0.787,-0.7875,-0.7849,-0.7973,-0.802,-0.7901,-0.7901,-0.7901,-0.7901,-0.7901,-0.7901,-1.0144,-0.9949,-0.9872,-0.9611,-0.9495,-0.9302,-0.9206,-0.9074,-0.8946,-0.8701,-0.8545,-0.844,-0.8275,-0.8064,-0.7886,-0.7842,-0.7771,-0.7763,-0.7711,-0.7829,-0.784,-0.785,-0.7893,-0.7749,-0.7749,-0.76,-0.7598,-0.7597]}]]